Regional Weather Roundup
Issued by NWS Glasgow, MT

Home | Current Version | Previous Version | Text Only | Print | Product List | Glossary On
Versions: 1 2 3 4 5 6 7 8 9 10 11 12 13 14 15 16 17 18 19 20 21 22 23 24 25 26 27 28 29 30 31 32 33 34 35 36 37 38 39 40 41 42 43 44 45 46 47 48 49 50
000
ASUS45 KGGW 221915
RWRGGW
HOURLY REGIONAL WEATHER ROUNDUP FOR NORTHEAST MONTANA
NATIONAL WEATHER SERVICE GLASGOW MONTANA
1200 PM MST WED NOV 22 2017

NOTE: "FAIR" INDICATES FEW OR NO CLOUDS BELOW 12,000 FEET WITH NO
SIGNIFICANT WEATHER AND/OR OBSTRUCTIONS TO VISISBILITY.

NORTHEAST MONTANA


CITY           SKY/WX    TMP DP  RH WIND       PRES   REMARKS
GLASGOW        CLOUDY    51  34  52 W8        29.91R
PLENTYWOOD       N/A     43  32  65 NW10G32     N/A
WOLF POINT     CLOUDY    58  38  47 NW18G25   29.90R
JORDAN           N/A     66  41  40 W16       29.93R
WINNETT          N/A     67  37  33 W15G32      N/A
SIDNEY         CLOUDY    56  38  50 NW15G26   29.88F
GLENDIVE       CLOUDY    64  40  41 W22G29    29.91R
MALTA            N/A     64  42  44 W13G26      N/A
SCOBEY           N/A     45  28  52 W15G21    29.87R

FORT PECK REPORTS


CITY           SKY/WX    TMP DP  RH WIND       PRES   REMARKS
FORT PECK        N/A     51  35  54 NW5         N/A
THE PINES        N/A     65  39  38 NW9         N/A

SOUTHEAST MONTANA


CITY           SKY/WX    TMP DP  RH WIND       PRES   REMARKS
BILLINGS       PTSUNNY   56  39  53 SW16      30.09S
MILES CITY     MOSUNNY   60  42  51 W17G28    29.97S
BAKER          CLOUDY    59  40  49 W21       29.95F
LIVINGSTON     CLOUDY    61  40  45 SW36G46   30.14F

CENTRAL MONTANA


CITY           SKY/WX    TMP DP  RH WIND       PRES   REMARKS
HAVRE          CLOUDY    57  42  57 W14       29.96R
LEWISTOWN      CLOUDY    60  40  47 SW16      30.06S
GREAT FALLS    CLOUDY    57  40  52 SW22G36   30.06R
CUT BANK       CLOUDY    55  43  63 W24G32    30.00R
HELENA         CLOUDY    50  43  77 N5        30.16R
BUTTE          CLOUDY    51  37  58 VRB3      30.28S
BOZEMAN        CLOUDY    48  37  65 E3        30.22F

WESTERN MONTANA


CITY           SKY/WX    TMP DP  RH WIND       PRES   REMARKS
MISSOULA       LGT RAIN  42  40  92 CALM      30.24R
KALISPELL      NOT AVBL

NORTH DAKOTA


CITY           SKY/WX    TMP DP  RH WIND       PRES   REMARKS
WILLISTON      CLOUDY    45  32  60 W12       29.86R
DICKINSON      CLOUDY    62  38  40 W31G44    29.84S
MINOT          SUNNY     38  22  52 N8        29.80S
BISMARCK       CLOUDY    47  24  40 SW6       29.83F

SOUTHERN SASKATCHEWAN


CITY           SKY/WX    TMP DP  RH WIND       PRES   REMARKS
REGINA         PTSUNNY   21  16  79 NW10      29.90R
MOOSE JAW      MOSUNNY   19  16  86 NW9       29.93R
ESTEVAN        MOSUNNY   34  21  60 W13       29.84R
SWIFT CURRENT  SUNNY     27  21  80 W12       29.88R




USA.gov is the U.S. government's official web portal to all federal, state and local government web resources and services.